Powrót do katalogu

HONGYUN 1

AktywnyŁącznośćSSO
NORAD 43871·PAYLOAD·🇨🇳 China

Wystrzelony Dec 21, 2018 z Jiuquan Satellite Launch Center

Loading…

Następne Przeloty (najbliższe 24 godziny)

TLE

ŚwieżeSource: Space-Track

Epoka: Sep 14, 2026, 23:18 UTC

1 43871U 18108A   26257.97150250 -.00000030  00000-0  21160-4 0  9990
2 43871  99.7448 278.0583 0011190 196.8350 163.2415 13.51561459381210

Śledź HONGYUN 1 w czasie rzeczywistym z AllMySat

Download on the App Store